QPF
0.02 0.01 0.02 0.02 0.01 0.01 0.02 0.01 0.02 0.02 0.01 0.02 0.02 0.02 0.01 0.01 0.01 0.01 0.01 0.02 0.02 0.02 0.03 0.04 0.05 0.12 0.12 0.06 0.05 0.06 0.06 0.05 0.05 0.04 0.04 0.04 0.05 0.04 0.04 0.06 0.07 0.09 0.08 0.09
0.03 0.02 0.01 0.01 0.01 0.01 0.02 0.01 0.01 0.02 0.01 0.02 0.02 0.02 0.01 0.01 0.01 0.01 0.01 0.01 0.01 0.01 0.02 0.03 0.04 0.08 0.11 0.06 0.04 0.04 0.06 0.07 0.07 0.05 0.03 0.03 0.05 0.05 0.04 0.06 0.06 0.07 0.07 0.08
0.03 0.02 0.01 0.02 0.01 0.01 0.01 0.01 0.01 0.01 0.02 0.02 0.02 0.03 0.01 0.01 0.01 0.01 0.00 0.00 0.01 0.01 0.01 0.02 0.03 0.05 0.08 0.08 0.05 0.03 0.03 0.06 0.08 0.07 0.05 0.03 0.03 0.04 0.05 0.04 0.06 0.07 0.08 0.08
0.02 0.01 0.01 0.02 0.01 0.01 0.01 0.01 0.01 0.01 0.02 0.03 0.02 0.03 0.01 0.01 0.01 0.01 0.01 0.01 0.01 0.01 0.00 0.00 0.01 0.02 0.04 0.06 0.05 0.04 0.03 0.03 0.06 0.07 0.06 0.04 0.03 0.02 0.04 0.04 0.04 0.05 0.07 0.08
0.02 0.02 0.01 0.02 0.01 0.01 0.02 0.01 0.01 0.02 0.02 0.02 0.02 0.02 0.01 0.01 0.01 0.01 0.01 0.01 0.01 0.01 0.00 0.00 0.00 0.01 0.01 0.02 0.03 0.03 0.03 0.03 0.03 0.04 0.04 0.04 0.04 0.04 0.03 0.03 0.04 0.05 0.06 0.06
0.01 0.01 0.01 0.01 0.02 0.02 0.02 0.02 0.02 0.04 0.04 0.02 0.01 0.02 0.01 0.01 0.01 0.01 0.01 0.01 0.01 0.01 0.00 0.00 0.00 0.00 0.00 0.00 0.01 0.01 0.01 0.01 0.02 0.02 0.02 0.03 0.03 0.03 0.04 0.04 0.05 0.05 0.06 0.06
0.01 0.01 0.01 0.01 0.03 0.02 0.03 0.03 0.05 0.05 0.04 0.02 0.01 0.01 0.02 0.01 0.00 0.01 0.01 0.02 0.02 0.01 0.01 0.01 0.01 0.00 0.00 0.00 0.00 0.00 0.00 0.01 0.01 0.01 0.01 0.01 0.02 0.02 0.02 0.03 0.05 0.06 0.06 0.06
0.03 0.02 0.01 0.01 0.02 0.03 0.03 0.03 0.04 0.03 0.02 0.01 0.01 0.01 0.01 0.01 0.00 0.01 0.01 0.01 0.01 0.01 0.01 0.01 0.01 0.01 0.00 0.00 0.00 0.00 0.00 0.00 0.00 0.01 0.01 0.01 0.01 0.02 0.02 0.02 0.03 0.05 0.06 0.06
0.02 0.02 0.01 0.01 0.01 0.01 0.03 0.02 0.02 0.03 0.02 0.01 0.01 0.01 0.01 0.00 0.00 0.00 0.01 0.01 0.01 0.02 0.02 0.02 0.01 0.01 0.01 0.00 0.00 0.00 0.00 0.00 0.00 0.00 0.00 0.01 0.01 0.02 0.01 0.01 0.02 0.03 0.05 0.06
0.02 0.02 0.01 0.01 0.00 0.01 0.01 0.01 0.02 0.03 0.03 0.01 0.01 0.01 0.01 0.01 0.00 0.01 0.01 0.01 0.01 0.02 0.03 0.03 0.03 0.02 0.01 0.01 0.01 0.00 0.00 0.00 0.00 0.00 0.00 0.01 0.01 0.02 0.02 0.01 0.02 0.03 0.04 0.06
0.02 0.03 0.02 0.01 0.01 0.01 0.01 0.01 0.01 0.02 0.02 0.01 0.01 0.01 0.02 0.02 0.01 0.01 0.01 0.01 0.01 0.02 0.03 0.03 0.04 0.04 0.03 0.01 0.01 0.01 0.00 0.00 0.00 0.00 0.01 0.02 0.02 0.02 0.02 0.01 0.02 0.03 0.04 0.05
0.01 0.02 0.02 0.01 0.00 0.00 0.00 0.01 0.01 0.02 0.02 0.01 0.01 0.01 0.01 0.01 0.01 0.01 0.01 0.01 0.01 0.01 0.02 0.02 0.03 0.05 0.06 0.05 0.04 0.02 0.01 0.01 0.01 0.02 0.02 0.03 0.03 0.02 0.02 0.01 0.02 0.02 0.04 0.05
0.01 0.02 0.02 0.01 0.01 0.01 0.01 0.01 0.01 0.01 0.03 0.02 0.01 0.01 0.01 0.01 0.00 0.00 0.00 0.01 0.01 0.01 0.01 0.01 0.02 0.04 0.06 0.06 0.06 0.05 0.04 0.04 0.03 0.03 0.03 0.03 0.03 0.03 0.02 0.01 0.02 0.03 0.03 0.04
0.02 0.02 0.01 0.01 0.01 0.01 0.01 0.01 0.01 0.02 0.03 0.01 0.01 0.01 0.00 0.00 0.00 0.00 0.01 0.01 0.01 0.01 0.01 0.01 0.01 0.02 0.03 0.05 0.05 0.06 0.06 0.06 0.05 0.04 0.04 0.04 0.04 0.03 0.02 0.02 0.02 0.03 0.04 0.04
0.02 0.02 0.01 0.00 0.00 0.01 0.01 0.01 0.01 0.01 0.01 0.01 0.01 0.01 0.01 0.01 0.01 0.01 0.01 0.01 0.01 0.01 0.01 0.01 0.01 0.02 0.02 0.02 0.03 0.04 0.04 0.04 0.04 0.03 0.03 0.04 0.04 0.03 0.02 0.01 0.01 0.02 0.03 0.05
0.02 0.02 0.01 0.01 0.00 0.01 0.01 0.00 0.00 0.00 0.00 0.00 0.00 0.00 0.00 0.00 0.01 0.01 0.01 0.01 0.01 0.01 0.01 0.01 0.01 0.01 0.02 0.02 0.01 0.02 0.02 0.02 0.02 0.02 0.02 0.03 0.03 0.03 0.02 0.01 0.01 0.02 0.03 0.04
0.02 0.02 0.02 0.01 0.00 0.01 0.01 0.00 0.00 0.00 0.01 0.01 0.01 0.01 0.00 0.00 0.01 0.01 0.01 0.01 0.01 0.01 0.01 0.01 0.02 0.02 0.02 0.02 0.02 0.01 0.01 0.01 0.01 0.01 0.02 0.02 0.02 0.01 0.01 0.01 0.01 0.02 0.03 0.03
0.02 0.02 0.03 0.02 0.01 0.01 0.00 0.00 0.00 0.00 0.00 0.01 0.01 0.01 0.01 0.01 0.01 0.01 0.01 0.01 0.02 0.01 0.01 0.01 0.02 0.02 0.03 0.02 0.02 0.02 0.02 0.02 0.02 0.01 0.01 0.01 0.01 0.01 0.01 0.01 0.01 0.02 0.03 0.03
0.02 0.03 0.04 0.03 0.01 0.00 0.00 0.00 0.00 0.00 0.00 0.00 0.00 0.00 0.01 0.01 0.01 0.00 0.01 0.01 0.02 0.02 0.02 0.01 0.02 0.02 0.02 0.03 0.03 0.03 0.03 0.02 0.02 0.01 0.01 0.01 0.01 0.01 0.01 0.01 0.02 0.03 0.03 0.04
0.02 0.04 0.06 0.03 0.01 0.00 0.00 0.00 0.00 0.00 0.00 0.00 0.00 0.01 0.01 0.01 0.01 0.01 0.00 0.01 0.01 0.01 0.01 0.01 0.01 0.01 0.02 0.02 0.02 0.03 0.03 0.03 0.03 0.02 0.02 0.02 0.01 0.01 0.01 0.01 0.02 0.02 0.03 0.04
0.02 0.04 0.05 0.03 0.02 0.00 0.00 0.00 0.00 0.00 0.01 0.01 0.01 0.01 0.01 0.01 0.01 0.01 0.01 0.01 0.01 0.01 0.01 0.01 0.01 0.01 0.01 0.02 0.02 0.03 0.03 0.04 0.04 0.03 0.02 0.02 0.02 0.02 0.02 0.02 0.02 0.02 0.03 0.04
0.01 0.01 0.02 0.02 0.02 0.01 0.00 0.00 0.01 0.01 0.01 0.01 0.01 0.01 0.01 0.01 0.01 0.01 0.01 0.01 0.01 0.00 0.01 0.00 0.01 0.01 0.01 0.02 0.02 0.02 0.02 0.03 0.03 0.03 0.02 0.02 0.02 0.03 0.03 0.02 0.02 0.03 0.03 0.04
0.00 0.01 0.01 0.01 0.01 0.01 0.00 0.01 0.01 0.01 0.01 0.01 0.01 0.01 0.01 0.01 0.01 0.01 0.01 0.00 0.01 0.00 0.00 0.00 0.00 0.01 0.01 0.02 0.02 0.02 0.02 0.03 0.03 0.03 0.03 0.03 0.03 0.03 0.03 0.03 0.03 0.04 0.04 0.05
0.00 0.01 0.01 0.01 0.01 0.00 0.00 0.00 0.00 0.01 0.01 0.00 0.00 0.01 0.02 0.02 0.01 0.01 0.01 0.00 0.01 0.01 0.01 0.00 0.01 0.01 0.01 0.02 0.02 0.03 0.03 0.03 0.03 0.03 0.03 0.03 0.03 0.04 0.04 0.03 0.03 0.04 0.04 0.04
0.00 0.00 0.00 0.01 0.00 0.00 0.00 0.00 0.01 0.01 0.00 0.00 0.00 0.01 0.01 0.01 0.01 0.01 0.01 0.01 0.01 0.01 0.01 0.01 0.01 0.01 0.01 0.02 0.03 0.03 0.03 0.03 0.03 0.03 0.03 0.03 0.03 0.03 0.04 0.04 0.04 0.04 0.04 0.05
0.00 0.00 0.01 0.01 0.00 0.01 0.01 0.00 0.00 0.00 0.00 0.00 0.00 0.00 0.01 0.01 0.01 0.01 0.01 0.01 0.01 0.01 0.01 0.01 0.01 0.01 0.02 0.02 0.02 0.03 0.03 0.04 0.04 0.03 0.03 0.03 0.03 0.03 0.03 0.03 0.05 0.06 0.07 0.07
MSLP
1008.67 1008.85 1008.90 1008.87 1008.82 1008.79 1008.80 1008.88 1008.98 1009.08 1009.13 1009.07 1008.87 1008.52 1008.03 1007.43 1006.77 1006.11 1005.51 1005.00 1004.62 1004.38 1004.28 1004.32 1004.48 1004.74 1005.09 1005.52 1006.03 1006.59 1007.19 1007.81 1008.44 1009.06 1009.65 1010.20 1010.72 1011.20 1011.66 1012.09 1012.49 1012.87 1013.23 1013.55
1008.02 1008.16 1008.20 1008.20 1008.20 1008.24 1008.34 1008.50 1008.66 1008.80 1008.85 1008.77 1008.54 1008.16 1007.64 1007.03 1006.39 1005.76 1005.20 1004.74 1004.39 1004.17 1004.07 1004.08 1004.20 1004.41 1004.71 1005.10 1005.57 1006.11 1006.70 1007.33 1007.96 1008.57 1009.16 1009.72 1010.24 1010.73 1011.19 1011.64 1012.08 1012.49 1012.89 1013.26
1007.32 1007.48 1007.57 1007.64 1007.74 1007.88 1008.07 1008.28 1008.48 1008.60 1008.61 1008.47 1008.18 1007.74 1007.20 1006.60 1006.00 1005.44 1004.96 1004.58 1004.30 1004.12 1004.03 1004.02 1004.09 1004.23 1004.47 1004.80 1005.21 1005.71 1006.28 1006.88 1007.50 1008.11 1008.68 1009.22 1009.72 1010.20 1010.65 1011.10 1011.55 1011.99 1012.43 1012.84
1006.57 1006.80 1006.99 1007.19 1007.42 1007.69 1007.97 1008.24 1008.43 1008.51 1008.43 1008.19 1007.80 1007.29 1006.71 1006.13 1005.58 1005.12 1004.75 1004.48 1004.30 1004.18 1004.12 1004.11 1004.14 1004.22 1004.39 1004.64 1005.00 1005.45 1005.97 1006.55 1007.14 1007.72 1008.27 1008.78 1009.25 1009.69 1010.11 1010.55 1010.99 1011.44 1011.89 1012.33
1005.75 1006.09 1006.43 1006.79 1007.19 1007.60 1007.98 1008.30 1008.48 1008.49 1008.30 1007.94 1007.43 1006.82 1006.20 1005.62 1005.13 1004.77 1004.53 1004.40 1004.34 1004.32 1004.31 1004.31 1004.32 1004.37 1004.47 1004.67 1004.96 1005.35 1005.83 1006.37 1006.93 1007.47 1007.98 1008.44 1008.86 1009.25 1009.64 1010.04 1010.46 1010.90 1011.36 1011.81
1004.88 1005.34 1005.84 1006.38 1006.95 1007.51 1008.01 1008.38 1008.54 1008.48 1008.19 1007.69 1007.05 1006.35 1005.67 1005.09 1004.67 1004.41 1004.30 1004.31 1004.39 1004.48 1004.56 1004.60 1004.62 1004.65 1004.72 1004.86 1005.09 1005.43 1005.87 1006.36 1006.87 1007.36 1007.82 1008.23 1008.59 1008.93 1009.27 1009.63 1010.01 1010.44 1010.88 1011.33
1003.99 1004.55 1005.18 1005.88 1006.62 1007.34 1007.95 1008.37 1008.54 1008.42 1008.03 1007.42 1006.66 1005.88 1005.15 1004.58 1004.20 1004.04 1004.06 1004.22 1004.43 1004.65 1004.83 1004.94 1004.99 1005.02 1005.07 1005.17 1005.37 1005.66 1006.04 1006.48 1006.93 1007.37 1007.77 1008.12 1008.43 1008.71 1008.99 1009.30 1009.65 1010.05 1010.47 1010.90
1003.13 1003.73 1004.46 1005.29 1006.16 1007.00 1007.71 1008.19 1008.37 1008.22 1007.77 1007.08 1006.25 1005.40 1004.65 1004.09 1003.77 1003.70 1003.84 1004.12 1004.47 1004.81 1005.08 1005.27 1005.37 1005.42 1005.47 1005.56 1005.72 1005.97 1006.29 1006.67 1007.07 1007.44 1007.77 1008.06 1008.30 1008.53 1008.76 1009.03 1009.35 1009.71 1010.10 1010.51
1002.37 1002.96 1003.72 1004.60 1005.55 1006.47 1007.25 1007.78 1007.98 1007.83 1007.36 1006.64 1005.79 1004.93 1004.18 1003.66 1003.40 1003.40 1003.64 1004.03 1004.49 1004.94 1005.31 1005.57 1005.72 1005.81 1005.87 1005.95 1006.08 1006.28 1006.56 1006.87 1007.20 1007.50 1007.77 1007.98 1008.17 1008.34 1008.53 1008.76 1009.04 1009.38 1009.75 1010.12
1001.77 1002.29 1003.00 1003.87 1004.83 1005.76 1006.56 1007.11 1007.34 1007.21 1006.77 1006.08 1005.26 1004.43 1003.74 1003.27 1003.08 1003.17 1003.50 1003.98 1004.52 1005.05 1005.49 1005.82 1006.03 1006.15 1006.22 1006.29 1006.40 1006.56 1006.78 1007.03 1007.28 1007.51 1007.71 1007.86 1007.99 1008.11 1008.26 1008.46 1008.71 1009.02 1009.36 1009.71
1001.38 1001.79 1002.39 1003.16 1004.04 1004.91 1005.68 1006.22 1006.45 1006.37 1005.98 1005.36 1004.63 1003.90 1003.31 1002.94 1002.84 1003.02 1003.42 1003.97 1004.58 1005.16 1005.66 1006.03 1006.28 1006.42 1006.51 1006.58 1006.67 1006.79 1006.95 1007.14 1007.32 1007.48 1007.60 1007.70 1007.77 1007.84 1007.95 1008.11 1008.34 1008.62 1008.93 1009.25
1001.21 1001.46 1001.91 1002.52 1003.25 1004.00 1004.67 1005.15 1005.38 1005.32 1005.01 1004.51 1003.91 1003.33 1002.88 1002.65 1002.67 1002.94 1003.41 1004.02 1004.68 1005.31 1005.84 1006.24 1006.51 1006.68 1006.78 1006.84 1006.91 1007.00 1007.12 1007.24 1007.36 1007.45 1007.52 1007.55 1007.56 1007.59 1007.65 1007.77 1007.96 1008.20 1008.49 1008.79
1001.20 1001.31 1001.57 1001.99 1002.52 1003.08 1003.60 1003.99 1004.18 1004.15 1003.92 1003.55 1003.12 1002.73 1002.46 1002.40 1002.56 1002.95 1003.50 1004.17 1004.87 1005.52 1006.08 1006.50 1006.79 1006.97 1007.08 1007.15 1007.20 1007.27 1007.35 1007.42 1007.48 1007.52 1007.52 1007.49 1007.45 1007.42 1007.43 1007.50 1007.64 1007.84 1008.09 1008.35
1001.27 1001.25 1001.33 1001.55 1001.85 1002.21 1002.55 1002.81 1002.94 1002.93 1002.79 1002.56 1002.32 1002.13 1002.08 1002.21 1002.54 1003.05 1003.70 1004.43 1005.17 1005.85 1006.42 1006.86 1007.17 1007.37 1007.48 1007.55 1007.61 1007.66 1007.70 1007.74 1007.76 1007.74 1007.69 1007.61 1007.51 1007.42 1007.37 1007.38 1007.46 1007.60 1007.79 1008.02
1001.32 1001.20 1001.14 1001.16 1001.26 1001.41 1001.56 1001.69 1001.76 1001.76 1001.70 1001.62 1001.57 1001.61 1001.78 1002.11 1002.62 1003.27 1004.03 1004.83 1005.61 1006.32 1006.91 1007.37 1007.69 1007.91 1008.04 1008.11 1008.17 1008.21 1008.24 1008.25 1008.23 1008.17 1008.08 1007.94 1007.79 1007.64 1007.53 1007.47 1007.47 1007.53 1007.66 1007.83
1001.27 1001.10 1000.94 1000.81 1000.74 1000.71 1000.71 1000.72 1000.74 1000.76 1000.79 1000.85 1000.99 1001.24 1001.63 1002.16 1002.85 1003.64 1004.50 1005.38 1006.21 1006.95 1007.56 1008.03 1008.38 1008.60 1008.75 1008.84 1008.89 1008.92 1008.94 1008.93 1008.88 1008.80 1008.67 1008.49 1008.29 1008.09 1007.91 1007.77 1007.69 1007.67 1007.72 1007.81
1001.05 1000.88 1000.67 1000.47 1000.28 1000.14 1000.04 999.99 999.99 1000.04 1000.16 1000.36 1000.68 1001.12 1001.70 1002.42 1003.26 1004.18 1005.14 1006.08 1006.95 1007.72 1008.35 1008.84 1009.19 1009.43 1009.59 1009.68 1009.73 1009.76 1009.76 1009.73 1009.66 1009.55 1009.39 1009.19 1008.95 1008.70 1008.45 1008.25 1008.09 1007.99 1007.95 1007.96
1000.67 1000.54 1000.35 1000.14 999.93 999.76 999.64 999.58 999.60 999.72 999.93 1000.27 1000.74 1001.34 1002.08 1002.94 1003.89 1004.90 1005.92 1006.90 1007.80 1008.58 1009.23 1009.72 1010.08 1010.33 1010.48 1010.57 1010.62 1010.63 1010.61 1010.55 1010.47 1010.33 1010.15 1009.92 1009.66 1009.38 1009.09 1008.83 1008.61 1008.43 1008.31 1008.24
1000.21 1000.15 1000.03 999.88 999.74 999.61 999.54 999.55 999.65 999.85 1000.18 1000.63 1001.21 1001.93 1002.77 1003.71 1004.73 1005.78 1006.82 1007.81 1008.70 1009.48 1010.12 1010.61 1010.97 1011.21 1011.35 1011.43 1011.45 1011.43 1011.38 1011.30 1011.19 1011.03 1010.84 1010.60 1010.32 1010.03 1009.73 1009.43 1009.16 1008.93 1008.73 1008.59
999.76 999.80 999.80 999.78 999.76 999.76 999.81 999.93 1000.15 1000.46 1000.89 1001.43 1002.10 1002.88 1003.76 1004.72 1005.73 1006.76 1007.77 1008.73 1009.59 1010.34 1010.95 1011.43 1011.77 1011.99 1012.12 1012.17 1012.16 1012.11 1012.03 1011.91 1011.76 1011.59 1011.38 1011.14 1010.87 1010.58 1010.28 1009.97 1009.68 1009.41 1009.17 1008.95
999.47 999.62 999.76 999.90 1000.05 1000.22 1000.44 1000.72 1001.07 1001.50 1002.01 1002.62 1003.32 1004.10 1004.96 1005.87 1006.82 1007.77 1008.71 1009.59 1010.39 1011.08 1011.66 1012.10 1012.42 1012.63 1012.74 1012.76 1012.72 1012.64 1012.51 1012.35 1012.17 1011.97 1011.75 1011.52 1011.26 1010.99 1010.70 1010.42 1010.13 1009.84 1009.57 1009.31
999.44 999.71 1000.00 1000.32 1000.65 1001.01 1001.41 1001.84 1002.32 1002.85 1003.43 1004.06 1004.74 1005.48 1006.25 1007.07 1007.90 1008.73 1009.55 1010.33 1011.04 1011.67 1012.19 1012.61 1012.91 1013.10 1013.20 1013.20 1013.14 1013.01 1012.85 1012.66 1012.45 1012.23 1011.99 1011.76 1011.52 1011.27 1011.01 1010.75 1010.48 1010.20 1009.91 1009.62
999.75 1000.13 1000.56 1001.04 1001.55 1002.08 1002.63 1003.20 1003.78 1004.38 1004.98 1005.59 1006.22 1006.86 1007.51 1008.19 1008.87 1009.56 1010.24 1010.89 1011.51 1012.07 1012.55 1012.94 1013.23 1013.42 1013.51 1013.51 1013.43 1013.29 1013.10 1012.88 1012.64 1012.40 1012.16 1011.92 1011.69 1011.46 1011.23 1010.99 1010.75 1010.48 1010.20 1009.90
1000.43 1000.91 1001.46 1002.06 1002.70 1003.35 1004.01 1004.66 1005.29 1005.90 1006.48 1007.04 1007.58 1008.10 1008.62 1009.14 1009.66 1010.20 1010.74 1011.28 1011.80 1012.29 1012.74 1013.11 1013.40 1013.60 1013.71 1013.72 1013.65 1013.51 1013.31 1013.07 1012.81 1012.55 1012.29 1012.04 1011.82 1011.60 1011.38 1011.17 1010.94 1010.69 1010.41 1010.11
1001.48 1002.03 1002.64 1003.31 1004.01 1004.72 1005.41 1006.08 1006.70 1007.28 1007.80 1008.28 1008.70 1009.10 1009.48 1009.85 1010.23 1010.63 1011.05 1011.49 1011.94 1012.38 1012.79 1013.17 1013.47 1013.70 1013.83 1013.87 1013.82 1013.69 1013.49 1013.25 1012.98 1012.70 1012.43 1012.17 1011.92 1011.70 1011.49 1011.28 1011.06 1010.81 1010.54 1010.24
1002.83 1003.41 1004.04 1004.72 1005.40 1006.08 1006.73 1007.34 1007.90 1008.39 1008.83 1009.20 1009.52 1009.81 1010.07 1010.33 1010.60 1010.89 1011.22 1011.58 1011.97 1012.38 1012.77 1013.14 1013.46 1013.71 1013.88 1013.95 1013.93 1013.82 1013.64 1013.40 1013.13 1012.84 1012.55 1012.27 1012.00 1011.76 1011.53 1011.30 1011.08 1010.83 1010.56 1010.26
Thickness
5550 5553 5551 5550 5549 5553 5554 5554 5559 5560 5554 5552 5558 5562 5565 5566 5563 5563 5565 5566 5567 5567 5565 5562 5562 5561 5562 5561 5562 5563 5563 5565 5565 5567 5569 5571 5574 5575 5575 5575 5575 5576 5577 5577
5545 5542 5539 5538 5538 5539 5542 5543 5549 5548 5542 5543 5547 5552 5558 5559 5556 5556 5557 5557 5557 5557 5555 5553 5552 5552 5552 5552 5552 5553 5553 5554 5555 5556 5558 5560 5562 5563 5564 5564 5565 5566 5566 5567
5537 5531 5528 5529 5530 5531 5534 5536 5537 5535 5534 5533 5535 5554 5555 5550 5547 5545 5545 5546 5546 5546 5546 5545 5543 5542 5542 5541 5542 5542 5543 5544 5544 5546 5547 5549 5551 5552 5554 5555 5556 5556 5556 5557
5525 5520 5520 5522 5522 5521 5528 5524 5521 5520 5524 5536 5530 5548 5557 5547 5542 5540 5538 5538 5538 5536 5535 5534 5534 5534 5533 5531 5530 5532 5533 5533 5534 5535 5537 5539 5542 5544 5545 5545 5545 5545 5546 5546
5515 5510 5511 5513 5513 5511 5515 5511 5510 5511 5513 5519 5525 5526 5554 5540 5537 5536 5534 5531 5529 5526 5525 5524 5524 5524 5523 5521 5520 5521 5522 5523 5524 5525 5526 5528 5531 5533 5534 5534 5535 5536 5536 5536
5504 5499 5500 5502 5501 5501 5501 5502 5502 5503 5508 5518 5523 5524 5546 5539 5534 5531 5527 5523 5519 5517 5516 5515 5515 5514 5513 5512 5511 5511 5512 5513 5513 5514 5516 5518 5520 5522 5523 5523 5525 5525 5526 5526
5501 5497 5492 5492 5495 5495 5495 5502 5511 5515 5516 5527 5509 5512 5532 5529 5524 5520 5516 5514 5511 5509 5508 5507 5506 5506 5505 5503 5502 5502 5503 5503 5504 5505 5506 5508 5509 5510 5512 5513 5514 5514 5516 5517
5500 5502 5489 5485 5487 5489 5488 5493 5503 5513 5523 5525 5502 5511 5526 5513 5510 5508 5506 5503 5501 5500 5499 5497 5496 5495 5494 5493 5492 5492 5493 5494 5494 5495 5496 5497 5498 5499 5500 5501 5503 5504 5506 5508
5493 5492 5479 5476 5476 5480 5482 5485 5481 5486 5481 5493 5515 5512 5513 5507 5503 5500 5497 5495 5493 5492 5491 5489 5487 5485 5484 5483 5482 5482 5483 5484 5484 5485 5487 5488 5489 5489 5490 5491 5492 5494 5497 5498
5475 5475 5475 5469 5470 5469 5473 5473 5474 5480 5490 5505 5515 5510 5515 5504 5498 5494 5490 5488 5486 5483 5482 5481 5479 5477 5475 5473 5472 5472 5473 5473 5474 5476 5477 5478 5479 5479 5480 5481 5483 5485 5487 5488
5464 5464 5468 5466 5465 5469 5463 5462 5466 5472 5474 5490 5504 5513 5503 5497 5491 5488 5484 5480 5476 5474 5472 5470 5470 5469 5467 5465 5463 5463 5463 5464 5466 5467 5468 5469 5470 5471 5471 5472 5474 5475 5477 5478
5456 5459 5467 5466 5457 5453 5457 5461 5461 5469 5467 5465 5481 5499 5489 5485 5481 5478 5475 5471 5467 5464 5462 5461 5461 5461 5459 5457 5456 5455 5455 5456 5457 5459 5460 5461 5462 5462 5463 5465 5466 5467 5468 5469
5447 5448 5463 5468 5455 5444 5445 5448 5446 5446 5453 5461 5473 5492 5478 5475 5473 5468 5465 5462 5459 5456 5454 5453 5452 5451 5451 5450 5449 5448 5449 5449 5449 5450 5451 5452 5453 5455 5456 5457 5458 5458 5459 5460
5442 5440 5453 5470 5467 5450 5443 5442 5438 5438 5450 5461 5468 5481 5480 5473 5468 5463 5458 5455 5453 5450 5446 5445 5444 5443 5442 5441 5441 5441 5442 5442 5442 5442 5443 5445 5446 5446 5447 5448 5449 5449 5450 5452
5434 5438 5435 5442 5443 5438 5439 5441 5436 5434 5447 5454 5470 5467 5473 5468 5460 5455 5451 5448 5445 5443 5440 5437 5436 5435 5434 5433 5433 5433 5434 5434 5434 5435 5436 5436 5436 5437 5438 5439 5440 5441 5442 5443
5421 5426 5424 5431 5433 5430 5430 5439 5439 5436 5440 5445 5452 5459 5464 5457 5450 5447 5444 5439 5437 5436 5433 5430 5427 5426 5425 5425 5425 5425 5425 5426 5426 5427 5428 5428 5428 5428 5430 5431 5432 5433 5434 5435
5416 5413 5423 5440 5427 5422 5443 5448 5440 5439 5440 5442 5449 5458 5453 5447 5443 5440 5437 5432 5429 5428 5425 5423 5420 5418 5418 5417 5416 5416 5417 5417 5418 5419 5419 5419 5420 5420 5421 5422 5423 5424 5425 5426
5405 5406 5411 5421 5420 5433 5460 5444 5441 5438 5440 5438 5441 5445 5442 5438 5435 5431 5429 5426 5424 5421 5418 5415 5413 5411 5410 5409 5408 5408 5408 5409 5409 5410 5410 5410 5410 5411 5412 5413 5414 5415 5415 5416
5402 5402 5408 5413 5425 5444 5450 5438 5429 5427 5437 5437 5433 5433 5431 5426 5425 5429 5423 5417 5415 5413 5410 5408 5406 5404 5402 5401 5400 5400 5400 5400 5400 5401 5401 5401 5401 5402 5403 5404 5404 5404 5405 5407
5391 5392 5402 5405 5418 5436 5451 5430 5420 5420 5432 5434 5425 5423 5422 5417 5425 5431 5417 5409 5407 5404 5402 5400 5398 5396 5395 5394 5393 5393 5393 5393 5393 5393 5392 5391 5391 5392 5393 5393 5394 5395 5396 5397
5393 5393 5397 5404 5412 5434 5435 5416 5412 5423 5438 5425 5419 5416 5412 5411 5414 5412 5405 5401 5399 5397 5394 5392 5391 5389 5388 5386 5385 5385 5385 5385 5385 5384 5383 5383 5382 5382 5383 5384 5385 5386 5387 5388
5410 5407 5399 5399 5406 5429 5421 5408 5416 5427 5419 5414 5411 5408 5405 5403 5401 5398 5396 5393 5391 5389 5387 5385 5384 5383 5381 5380 5379 5379 5378 5377 5376 5375 5375 5375 5374 5374 5375 5376 5377 5378 5378 5380
5409 5416 5418 5414 5430 5427 5415 5415 5414 5410 5408 5407 5404 5400 5397 5394 5393 5392 5389 5387 5384 5382 5380 5378 5377 5376 5374 5373 5372 5372 5371 5369 5368 5368 5368 5367 5367 5367 5367 5368 5370 5370 5371 5372
5406 5396 5400 5402 5417 5416 5410 5408 5404 5401 5399 5398 5395 5392 5389 5387 5387 5385 5383 5381 5378 5376 5373 5372 5370 5369 5368 5366 5365 5364 5363 5362 5361 5361 5360 5360 5360 5360 5360 5361 5362 5363 5364 5365
5414 5394 5395 5399 5412 5408 5408 5404 5401 5397 5393 5390 5386 5384 5382 5380 5379 5377 5376 5374 5372 5369 5367 5365 5363 5362 5361 5360 5359 5357 5356 5355 5355 5354 5353 5353 5353 5354 5354 5354 5355 5356 5357 5357
5407 5401 5403 5418 5417 5408 5411 5403 5396 5391 5388 5385 5381 5378 5376 5373 5371 5370 5368 5367 5364 5362 5360 5358 5357 5356 5355 5353 5352 5351 5350 5349 5348 5348 5347 5347 5347 5347 5348 5348 5349 5350 5351 5352